Terug naar catalogus

JIELONG 3 DEB

ActiefLEO
NORAD 62575·DEBRIS·🇨🇳 China

Gelanceerd Jan 13, 2025 vanaf Yellow Sea Launch Area

Loading…

Volgende Passages (komende 24 uur)

TLE

VersSource: Space-Track

Epoch: Sep 14, 2026, 11:06 UTC

1 62575U 25007A   26257.46264020  .00000818  00000-0  14559-3 0  9999
2 62575  54.9831 159.4393 0010249 214.3243 145.7096 14.76824760 89965

Volg JIELONG 3 DEB in realtime met AllMySat

Download on the App Store